Time,TemperatureF,DewpointF,PressureIn,WindDirection,WindDirectionDegrees,WindSpeedMPH,WindSpeedGustMPH,Humidity,HourlyPrecipIn,Conditions,Clouds,dailyrainin,SolarRadiationWatts/m^2,SoftwareType,DateUTC
2013-07-18 00:14:00,74.8,72.0,30.08,SW,228,0.0,0.0,91,0.00,,,0.00,0,weatherlink.com 1.10,2013-07-18 05:14:00,
2013-07-18 00:29:00,73.9,72.0,30.07,SW,228,0.0,0.0,92,0.00,,,0.00,0,weatherlink.com 1.10,2013-07-18 05:29:00,
2013-07-18 00:44:00,74.1,72.0,30.07,SW,228,0.0,0.0,93,0.00,,,0.00,0,weatherlink.com 1.10,2013-07-18 05:44:00,
2013-07-18 00:59:00,74.2,72.0,30.08,SW,228,0.0,0.0,92,0.00,,,0.00,0,weatherlink.com 1.10,2013-07-18 05:59:00,
2013-07-18 01:14:00,73.9,72.0,30.08,SW,228,0.0,0.0,93,0.00,,,0.00,0,weatherlink.com 1.10,2013-07-18 06:14:00,
2013-07-18 01:29:00,74.0,72.0,30.08,SW,228,0.0,0.0,94,0.00,,,0.00,0,weatherlink.com 1.10,2013-07-18 06:29:00,
2013-07-18 01:44:00,73.6,72.0,30.07,SW,228,0.0,0.0,93,0.00,,,0.00,0,weatherlink.com 1.10,2013-07-18 06:44:00,
2013-07-18 01:59:00,73.4,71.0,30.07,SW,228,0.0,0.0,93,0.00,,,0.00,0,weatherlink.com 1.10,2013-07-18 06:59:00,
2013-07-18 02:14:00,72.9,71.0,30.07,SW,228,2.0,2.0,93,0.00,,,0.00,0,weatherlink.com 1.10,2013-07-18 07:14:00,
2013-07-18 02:29:00,72.4,71.0,30.07,SW,228,1.0,2.0,94,0.00,,,0.00,0,weatherlink.com 1.10,2013-07-18 07:29:00,
2013-07-18 02:44:00,72.8,71.0,30.07,SW,228,0.0,1.0,95,0.00,,,0.00,0,weatherlink.com 1.10,2013-07-18 07:44:00,
2013-07-18 03:00:00,73.2,72.0,30.07,SW,228,3.0,3.0,95,0.00,,,0.00,0,weatherlink.com 1.10,2013-07-18 08:00:00,
2013-07-18 03:15:00,73.6,72.0,30.07,SW,228,0.0,1.0,95,0.00,,,0.00,0,weatherlink.com 1.10,2013-07-18 08:15:00,
2013-07-18 03:30:00,73.7,72.0,30.06,SW,228,4.0,5.0,94,0.00,,,0.00,0,weatherlink.com 1.10,2013-07-18 08:30:00,
2013-07-18 03:45:00,73.5,72.0,30.06,SW,228,0.0,6.0,94,0.00,,,0.00,0,weatherlink.com 1.10,2013-07-18 08:45:00,
2013-07-18 04:00:00,73.5,72.0,30.06,SW,228,0.0,0.0,94,0.00,,,0.00,0,weatherlink.com 1.10,2013-07-18 09:00:00,
2013-07-18 04:15:00,73.3,72.0,30.05,SW,228,0.0,0.0,94,0.00,,,0.00,0,weatherlink.com 1.10,2013-07-18 09:15:00,
2013-07-18 04:30:00,73.7,72.0,30.05,SW,228,0.0,2.0,94,0.00,,,0.00,0,weatherlink.com 1.10,2013-07-18 09:30:00,
2013-07-18 04:45:00,74.0,71.0,30.05,SW,228,0.0,0.0,90,0.00,,,0.00,0,weatherlink.com 1.10,2013-07-18 09:45:00,
2013-07-18 05:00:00,72.8,70.0,30.04,SW,228,2.0,3.0,91,0.00,,,0.00,0,weatherlink.com 1.10,2013-07-18 10:00:00,
2013-07-18 05:15:00,71.8,69.0,30.04,SW,228,2.0,3.0,92,0.00,,,0.00,0,weatherlink.com 1.10,2013-07-18 10:15:00,
2013-07-18 05:30:00,71.6,70.0,30.03,SW,228,0.0,3.0,94,0.00,,,0.00,0,weatherlink.com 1.10,2013-07-18 10:30:00,
2013-07-18 05:45:00,72.2,71.0,30.04,SW,228,0.0,1.0,95,0.00,,,0.00,7,weatherlink.com 1.10,2013-07-18 10:45:00,
2013-07-18 06:00:00,73.8,72.0,30.03,SW,228,0.0,3.0,94,0.00,,,0.00,19,weatherlink.com 1.10,2013-07-18 11:00:00,
2013-07-18 06:15:00,74.4,72.0,30.03,SW,228,0.0,3.0,92,0.00,,,0.00,42,weatherlink.com 1.10,2013-07-18 11:15:00,
2013-07-18 06:30:00,74.6,72.0,30.03,SW,228,0.0,1.0,91,0.00,,,0.00,70,weatherlink.com 1.10,2013-07-18 11:30:00,
2013-07-18 06:45:00,75.1,72.0,30.03,SW,228,2.0,3.0,91,0.00,,,0.00,104,weatherlink.com 1.10,2013-07-18 11:45:00,
2013-07-18 07:00:00,75.7,74.0,30.03,SW,228,0.0,3.0,93,0.00,,,0.00,146,weatherlink.com 1.10,2013-07-18 12:00:00,
2013-07-18 07:15:00,76.9,75.0,30.02,SW,228,3.0,6.0,92,0.00,,,0.00,186,weatherlink.com 1.10,2013-07-18 12:15:00,
2013-07-18 07:30:00,77.7,75.0,30.02,SW,228,5.0,6.0,91,0.00,,,0.00,227,weatherlink.com 1.10,2013-07-18 12:30:00,
2013-07-18 07:45:00,78.7,76.0,30.02,SW,228,4.0,5.0,90,0.00,,,0.00,267,weatherlink.com 1.10,2013-07-18 12:45:00,
2013-07-18 08:00:00,79.5,75.0,30.02,SW,228,5.0,6.0,87,0.00,,,0.00,306,weatherlink.com 1.10,2013-07-18 13:00:00,
2013-07-18 08:15:00,79.9,76.0,30.02,SW,228,4.0,7.0,87,0.00,,,0.00,345,weatherlink.com 1.10,2013-07-18 13:15:00,
2013-07-18 08:30:00,80.5,76.0,30.02,SW,228,6.0,7.0,85,0.00,,,0.00,394,weatherlink.com 1.10,2013-07-18 13:30:00,
2013-07-18 08:46:00,81.4,76.0,30.02,WSW,243,4.0,9.0,83,0.00,,,0.00,431,weatherlink.com 1.10,2013-07-18 13:46:00,
2013-07-18 09:01:00,82.1,77.0,30.02,WSW,246,10.0,10.0,84,0.00,,,0.00,480,weatherlink.com 1.10,2013-07-18 14:01:00,
2013-07-18 09:16:00,82.7,76.0,30.02,WSW,245,7.0,11.0,81,0.00,,,0.00,520,weatherlink.com 1.10,2013-07-18 14:16:00,
2013-07-18 09:31:00,83.1,76.0,30.01,WSW,253,5.0,11.0,79,0.00,,,0.00,559,weatherlink.com 1.10,2013-07-18 14:31:00,
2013-07-18 09:46:00,83.8,76.0,30.02,West,261,3.0,12.0,77,0.00,,,0.00,599,weatherlink.com 1.10,2013-07-18 14:46:00,
2013-07-18 10:01:00,84.1,77.0,30.01,WSW,247,6.0,12.0,78,0.00,,,0.00,633,weatherlink.com 1.10,2013-07-18 15:01:00,
2013-07-18 10:16:00,84.2,76.0,30.01,WSW,247,9.0,12.0,77,0.00,,,0.00,670,weatherlink.com 1.10,2013-07-18 15:16:00,
2013-07-18 10:31:00,84.5,76.0,30.01,WSW,255,7.0,14.0,76,0.00,,,0.00,703,weatherlink.com 1.10,2013-07-18 15:31:00,
2013-07-18 10:46:00,85.1,75.0,30.01,West,263,5.0,12.0,72,0.00,,,0.00,726,weatherlink.com 1.10,2013-07-18 15:46:00,
2013-07-18 11:01:00,85.6,76.0,30.00,West,260,6.0,12.0,72,0.00,,,0.00,759,weatherlink.com 1.10,2013-07-18 16:01:00,
2013-07-18 11:16:00,86.1,77.0,30.00,WSW,246,7.0,11.0,75,0.00,,,0.00,786,weatherlink.com 1.10,2013-07-18 16:16:00,
2013-07-18 11:31:00,86.3,76.0,30.00,WSW,239,7.0,14.0,72,0.00,,,0.00,812,weatherlink.com 1.10,2013-07-18 16:31:00,
2013-07-18 11:46:00,86.3,75.0,30.00,SW,228,11.0,15.0,69,0.00,,,0.00,831,weatherlink.com 1.10,2013-07-18 16:46:00,
2013-07-18 12:01:00,87.0,76.0,29.99,WSW,258,5.0,11.0,69,0.00,,,0.00,849,weatherlink.com 1.10,2013-07-18 17:01:00,
2013-07-18 12:16:00,87.1,75.0,29.99,WSW,246,9.0,13.0,68,0.00,,,0.00,856,weatherlink.com 1.10,2013-07-18 17:16:00,
2013-07-18 12:31:00,87.5,77.0,29.98,SW,218,13.0,13.0,72,0.00,,,0.00,872,weatherlink.com 1.10,2013-07-18 17:31:00,
2013-07-18 12:46:00,87.6,74.0,29.98,WSW,250,6.0,19.0,65,0.00,,,0.00,921,weatherlink.com 1.10,2013-07-18 17:46:00,
2013-07-18 13:01:00,86.9,76.0,29.97,WSW,247,5.0,11.0,70,0.00,,,0.00,1018,weatherlink.com 1.10,2013-07-18 18:01:00,
2013-07-18 13:17:00,86.3,75.0,29.97,WSW,241,6.0,10.0,68,0.00,,,0.00,230,weatherlink.com 1.10,2013-07-18 18:17:00,
2013-07-18 13:32:00,87.9,77.0,29.96,SSW,213,7.0,11.0,71,0.00,,,0.00,960,weatherlink.com 1.10,2013-07-18 18:32:00,
2013-07-18 13:47:00,88.3,76.0,29.96,WSW,248,9.0,13.0,67,0.00,,,0.00,137,weatherlink.com 1.10,2013-07-18 18:47:00,
2013-07-18 14:02:00,87.8,76.0,29.95,SW,221,11.0,13.0,68,0.00,,,0.00,267,weatherlink.com 1.10,2013-07-18 19:02:00,
2013-07-18 14:17:00,88.2,77.0,29.94,SW,235,9.0,16.0,69,0.00,,,0.00,947,weatherlink.com 1.10,2013-07-18 19:17:00,
2013-07-18 14:32:00,88.2,76.0,29.94,SW,215,10.0,14.0,68,0.00,,,0.00,842,weatherlink.com 1.10,2013-07-18 19:32:00,
2013-07-18 14:47:00,88.4,78.0,29.93,SW,215,11.0,17.0,70,0.00,,,0.00,851,weatherlink.com 1.10,2013-07-18 19:47:00,
2013-07-18 15:02:00,88.0,76.0,29.93,SW,227,15.0,18.0,67,0.00,,,0.00,805,weatherlink.com 1.10,2013-07-18 20:02:00,
2013-07-18 15:17:00,87.8,75.0,29.92,SW,232,10.0,14.0,66,0.00,,,0.00,796,weatherlink.com 1.10,2013-07-18 20:17:00,
2013-07-18 15:32:00,88.4,75.0,29.91,SW,236,7.0,17.0,64,0.00,,,0.00,773,weatherlink.com 1.10,2013-07-18 20:32:00,
2013-07-18 15:47:00,88.3,75.0,29.91,SSW,210,11.0,15.0,65,0.00,,,0.00,763,weatherlink.com 1.10,2013-07-18 20:47:00,
2013-07-18 16:02:00,88.5,77.0,29.90,WSW,245,8.0,17.0,68,0.00,,,0.00,707,weatherlink.com 1.10,2013-07-18 21:02:00,
2013-07-18 16:17:00,88.4,76.0,29.89,SW,220,12.0,17.0,66,0.00,,,0.00,691,weatherlink.com 1.10,2013-07-18 21:17:00,
2013-07-18 16:32:00,87.4,75.0,29.89,SW,224,8.0,17.0,66,0.00,,,0.00,211,weatherlink.com 1.10,2013-07-18 21:32:00,
2013-07-18 16:47:00,87.5,75.0,29.89,SW,228,9.0,18.0,67,0.00,,,0.00,580,weatherlink.com 1.10,2013-07-18 21:47:00,
2013-07-18 17:02:00,87.6,75.0,29.88,SW,218,10.0,18.0,66,0.00,,,0.00,529,weatherlink.com 1.10,2013-07-18 22:02:00,
2013-07-18 17:17:00,87.8,75.0,29.88,SW,214,13.0,14.0,66,0.00,,,0.00,496,weatherlink.com 1.10,2013-07-18 22:17:00,
2013-07-18 17:32:00,87.5,74.0,29.87,SW,223,13.0,17.0,65,0.00,,,0.00,445,weatherlink.com 1.10,2013-07-18 22:32:00,
2013-07-18 17:47:00,87.7,76.0,29.86,SW,218,6.0,14.0,68,0.00,,,0.00,404,weatherlink.com 1.10,2013-07-18 22:47:00,
2013-07-18 18:02:00,87.4,76.0,29.86,SW,215,9.0,14.0,68,0.00,,,0.00,350,weatherlink.com 1.10,2013-07-18 23:02:00,
2013-07-18 18:17:00,87.2,75.0,29.86,SW,235,7.0,14.0,67,0.00,,,0.00,309,weatherlink.com 1.10,2013-07-18 23:17:00,
2013-07-18 18:32:00,86.9,75.0,29.86,SW,223,10.0,13.0,68,0.00,,,0.00,264,weatherlink.com 1.10,2013-07-18 23:32:00,
2013-07-18 18:47:00,86.6,75.0,29.85,SW,234,7.0,11.0,68,0.00,,,0.00,216,weatherlink.com 1.10,2013-07-18 23:47:00,
2013-07-18 19:02:00,86.1,75.0,29.85,SW,219,6.0,11.0,70,0.00,,,0.00,178,weatherlink.com 1.10,2013-07-19 00:02:00,
2013-07-18 19:17:00,85.5,76.0,29.85,SSW,211,5.0,7.0,72,0.00,,,0.00,137,weatherlink.com 1.10,2013-07-19 00:17:00,
2013-07-18 19:32:00,84.8,75.0,29.84,SW,218,6.0,10.0,73,0.00,,,0.00,102,weatherlink.com 1.10,2013-07-19 00:32:00,
2013-07-18 19:47:00,83.6,75.0,29.85,SW,216,6.0,7.0,76,0.00,,,0.00,65,weatherlink.com 1.10,2013-07-19 00:47:00,
2013-07-18 20:02:00,82.1,75.0,29.84,SSW,213,5.0,7.0,78,0.00,,,0.00,35,weatherlink.com 1.10,2013-07-19 01:02:00,
2013-07-18 20:17:00,80.9,75.0,29.84,SSW,213,7.0,7.0,81,0.00,,,0.00,16,weatherlink.com 1.10,2013-07-19 01:17:00,
2013-07-18 20:32:00,79.9,74.0,29.83,SSW,213,7.0,8.0,83,0.00,,,0.00,5,weatherlink.com 1.10,2013-07-19 01:32:00,
2013-07-18 20:47:00,79.4,74.0,29.83,SSW,211,7.0,7.0,84,0.00,,,0.00,0,weatherlink.com 1.10,2013-07-19 01:47:00,
2013-07-18 21:02:00,78.7,74.0,29.83,SSW,209,7.0,8.0,85,0.00,,,0.00,0,weatherlink.com 1.10,2013-07-19 02:02:00,
2013-07-18 21:17:00,78.1,74.0,29.83,SSW,204,7.0,8.0,86,0.00,,,0.00,0,weatherlink.com 1.10,2013-07-19 02:17:00,
2013-07-18 21:32:00,77.9,74.0,29.83,SSW,205,7.0,8.0,87,0.00,,,0.00,0,weatherlink.com 1.10,2013-07-19 02:32:00,
2013-07-18 21:47:00,77.7,74.0,29.83,SSW,205,7.0,9.0,87,0.00,,,0.00,0,weatherlink.com 1.10,2013-07-19 02:47:00,
2013-07-18 22:03:00,77.4,73.0,29.83,SSW,203,7.0,8.0,87,0.00,,,0.00,0,weatherlink.com 1.10,2013-07-19 03:03:00,
2013-07-18 22:17:00,77.1,73.0,29.83,SSW,202,7.0,9.0,87,0.00,,,0.00,0,weatherlink.com 1.10,2013-07-19 03:17:00,
2013-07-18 22:32:00,77.2,73.0,29.84,SSW,200,7.0,9.0,86,0.00,,,0.00,0,weatherlink.com 1.10,2013-07-19 03:32:00,
2013-07-18 22:47:00,76.8,73.0,29.83,SSW,200,7.0,8.0,87,0.00,,,0.00,0,weatherlink.com 1.10,2013-07-19 03:47:00,
2013-07-18 23:02:00,76.8,73.0,29.83,SSW,210,7.0,9.0,87,0.00,,,0.00,0,weatherlink.com 1.10,2013-07-19 04:02:00,
2013-07-18 23:17:00,76.8,73.0,29.83,SSW,207,7.0,10.0,87,0.00,,,0.00,0,weatherlink.com 1.10,2013-07-19 04:17:00,
2013-07-18 23:32:00,76.7,73.0,29.82,SSW,209,7.0,8.0,87,0.00,,,0.00,0,weatherlink.com 1.10,2013-07-19 04:32:00,
2013-07-18 23:47:00,76.7,73.0,29.82,SSW,213,7.0,10.0,87,0.00,,,0.00,0,weatherlink.com 1.10,2013-07-19 04:47:00,